| time (UTC) | temp F | wind direction | speed MPH | gust MPH | rain 1hr in | rain 24hr in | rain mn in | humidity % | barometer mb |
| 20260504232515 | 80 | 359 | 8.0 | 19.0 | 0.00 | 0.00 | 0.00 | ||
| 20260504232016 | 80 | 354 | 10.0 | 21.0 | 0.00 | 0.00 | 0.00 | ||
| 20260504230515 | 80 | 359 | 11.0 | 23.0 | 0.00 | 0.00 | 0.00 | ||
| 20260504230016 | 81 | 356 | 8.0 | 21.0 | 0.00 | 0.00 | 0.00 | ||
| 20260504225518 | 81 | 353 | 13.0 | 21.0 | 0.00 | 0.00 | 0.00 | ||
| 20260504225019 | 81 | 352 | 7.0 | 19.0 | 0.00 | 0.00 | 0.00 | ||
| 20260504224512 | 81 | 359 | 6.0 | 18.0 | 0.00 | 0.00 | 0.00 | ||
| 20260504224013 | 81 | 347 | 10.0 | 23.0 | 0.00 | 0.00 | 0.00 | ||
| 20260504223515 | 81 | 346 | 10.0 | 23.0 | 0.00 | 0.00 | 0.00 | ||
| 20260504222503 | 81 | 0 | 10.0 | 22.0 | 0.00 | 0.00 | 0.00 | ||
| 20260504222007 | 81 | 0 | 10.0 | 22.0 | 0.00 | 0.00 | 0.00 | ||
| 20260504221529 | 81 | 359 | 9.0 | 22.0 | 0.00 | 0.00 | 0.00 | ||
| 20260504221001 | 81 | 353 | 12.0 | 22.0 | 0.00 | 0.00 | 0.00 | ||
| 20260504220503 | 81 | 343 | 8.0 | 22.0 | 0.00 | 0.00 | 0.00 | ||
| 20260504220001 | 81 | 0 | 13.0 | 23.0 | 0.00 | 0.00 | 0.00 | ||
| 20260504215027 | 81 | 357 | 17.0 | 23.0 | 0.00 | 0.00 | 0.00 | ||
| 20260504214500 | 82 | 359 | 8.0 | 21.0 | 0.00 | 0.00 | 0.00 | ||
| 20260504214001 | 81 | 0 | 7.0 | 21.0 | 0.00 | 0.00 | 0.00 | ||
| 20260504213504 | 81 | 359 | 4.0 | 21.0 | 0.00 | 0.00 | 0.00 | ||
| 20260504213002 | 81 | 358 | 9.0 | 21.0 | 0.00 | 0.00 | 0.00 | ||
| 20260504212029 | 81 | 353 | 8.0 | 18.0 | 0.00 | 0.00 | 0.00 | ||
| 20260504211503 | 81 | 359 | 9.0 | 22.0 | 0.00 | 0.00 | 0.00 | ||
| 20260504211005 | 81 | 352 | 8.0 | 22.0 | 0.00 | 0.00 | 0.00 | ||
| 20260504210504 | 81 | 0 | 10.0 | 21.0 | 0.00 | 0.00 | 0.00 | ||
| 20260504210006 | 81 | 357 | 10.0 | 21.0 | 0.00 | 0.00 | 0.00 | ||
| 20260504205506 | 81 | 356 | 12.0 | 21.0 | 0.00 | 0.00 | 0.00 | ||
| 20260504204505 | 81 | 359 | 11.0 | 21.0 | 0.00 | 0.00 | 0.00 | ||
| 20260504204006 | 81 | 355 | 11.0 | 21.0 | 0.00 | 0.00 | 0.00 | ||
| 20260504203506 | 81 | 359 | 6.0 | 18.0 | 0.00 | 0.00 | 0.00 | ||
| 20260504203004 | 81 | 0 | 10.0 | 21.0 | 0.00 | 0.00 | 0.00 | ||
| 20260504202026 | 81 | 0 | 10.0 | 17.0 | 0.00 | 0.00 | 0.00 | ||
| 20260504201019 | 80 | 13 | 9.0 | 15.0 | 0.00 | 0.00 | 0.00 | ||
| 20260504200520 | 80 | 350 | 7.0 | 15.0 | 0.00 | 0.00 | 0.00 | ||
| 20260504195505 | 80 | 352 | 7.0 | 25.0 | 0.00 | 0.00 | 0.00 | ||
| 20260504195012 | 80 | 345 | 11.0 | 25.0 | 0.00 | 0.00 | 0.00 | ||
| 20260504194008 | 79 | 357 | 13.0 | 19.0 | 0.00 | 0.00 | 0.00 | ||
| 20260504193511 | 79 | 358 | 6.0 | 18.0 | 0.00 | 0.00 | 0.00 | ||
| 20260504193012 | 79 | 356 | 8.0 | 18.0 | 0.00 | 0.00 | 0.00 | ||
| 20260504192514 | 79 | 344 | 7.0 | 15.0 | 0.00 | 0.00 | 0.00 | ||
| 20260504192014 | 79 | 0 | 7.0 | 18.0 | 0.00 | 0.00 | 0.00 | ||
| 20260504191507 | 78 | 0 | 11.0 | 19.0 | 0.00 | 0.00 | 0.00 | ||
| 20260504191009 | 78 | 359 | 11.0 | 19.0 | 0.00 | 0.00 | 0.00 | ||
| 20260504190509 | 78 | 345 | 5.0 | 14.0 | 0.00 | 0.00 | 0.00 | ||
| 20260504190008 | 77 | 349 | 7.0 | 14.0 | 0.00 | 0.00 | 0.00 | ||
| 20260504185508 | 77 | 357 | 3.0 | 15.0 | 0.00 | 0.00 | 0.00 | ||
| 20260504185011 | 77 | 357 | 5.0 | 16.0 | 0.00 | 0.00 | 0.00 | ||
| 20260504184501 | 76 | 355 | 5.0 | 16.0 | 0.00 | 0.00 | 0.00 | ||
| 20260504184007 | 76 | 0 | 8.0 | 18.0 | 0.00 | 0.00 | 0.00 | ||
| 20260504183508 | 76 | 353 | 10.0 | 19.0 | 0.00 | 0.00 | 0.00 | ||
| 20260504183008 | 76 | 348 | 12.0 | 18.0 | 0.00 | 0.00 | 0.00 | ||
| 20260504182508 | 76 | 357 | 7.0 | 17.0 | 0.00 | 0.00 | 0.00 | ||
| 20260504182010 | 75 | 0 | 9.0 | 17.0 | 0.00 | 0.00 | 0.00 | ||
| 20260504181531 | 75 | 352 | 8.0 | 17.0 | 0.00 | 0.00 | 0.00 | ||
| 20260504181002 | 75 | 359 | 11.0 | 17.0 | 0.00 | 0.00 | 0.00 | ||
| 20260504180503 | 75 | 0 | 9.0 | 18.0 | 0.00 | 0.00 | 0.00 | ||
| 20260504180003 | 74 | 355 | 10.0 | 19.0 | 0.00 | 0.00 | 0.00 | ||
| 20260504175502 | 74 | 0 | 10.0 | 19.0 | 0.00 | 0.00 | 0.00 | ||
| 20260504174531 | 74 | 359 | 5.0 | 20.0 | 0.00 | 0.00 | 0.00 | ||
| 20260504174002 | 74 | 342 | 9.0 | 20.0 | 0.00 | 0.00 | 0.00 | ||
| 20260504173501 | 74 | 359 | 4.0 | 13.0 | 0.00 | 0.00 | 0.00 | ||
| 20260504173009 | 73 | 0 | 10.0 | 14.0 | 0.00 | 0.00 | 0.00 | ||
| 20260504172510 | 73 | 355 | 8.0 | 14.0 | 0.00 | 0.00 | 0.00 | ||
| 20260504172012 | 73 | 356 | 4.0 | 17.0 | 0.00 | 0.00 | 0.00 | ||
| 20260504171503 | 73 | 347 | 8.0 | 17.0 | 0.00 | 0.00 | 0.00 | ||
| 20260504171004 | 72 | 358 | 6.0 | 15.0 | 0.00 | 0.00 | 0.00 | ||
| 20260504170507 | 72 | 358 | 6.0 | 13.0 | 0.00 | 0.00 | 0.00 | ||
| 20260504151020 | 67 | 0 | 2.0 | 8.0 | 0.00 | 0.00 | 0.00 | ||
| 20260504150518 | 67 | 354 | 3.0 | 8.0 | 0.00 | 0.00 | 0.00 | ||
| 20260504141003 | 67 | 358 | 4.0 | 8.0 | 0.00 | 0.00 | 0.00 | ||
| 20260504140504 | 67 | 5 | 2.0 | 7.0 | 0.00 | 0.00 | 0.00 | ||
| 20260504110519 | 70 | 0 | 0.0 | 6.0 | 0.00 | 0.00 | 0.00 | ||
| 20260504100520 | 72 | 332 | 1.0 | 5.0 | 0.00 | 0.00 | 0.00 | ||
| 20260504081521 | 73 | 192 | 0.0 | 2.0 | 0.00 | 0.00 | 0.00 | ||
| 20260504050512 | 78 | 359 | 0.0 | 9.0 | 0.00 | 0.00 | 0.00 | ||
| 20260504045517 | 78 | 0 | 1.0 | 5.0 | 0.00 | 0.00 | 0.00 | ||
| 20260504045019 | 78 | 0 | 0.0 | 6.0 | 0.00 | 0.00 | 0.00 | ||
| 20260504044510 | 79 | 0 | 1.0 | 6.0 | 0.00 | 0.00 | 0.00 | ||
| 20260504044016 | 79 | 0 | 0.0 | 1.0 | 0.00 | 0.00 | 0.00 | ||
| 20260504043514 | 79 | 0 | 0.0 | 1.0 | 0.00 | 0.00 | 0.00 | ||
| 20260504043013 | 79 | 354 | 0.0 | 1.0 | 0.00 | 0.00 | 0.00 | ||
| 20260504042514 | 79 | 0 | 0.0 | 1.0 | 0.00 | 0.00 | 0.00 | ||
| 20260504042014 | 80 | 0 | 0.0 | 1.0 | 0.00 | 0.00 | 0.00 | ||
| 20260504041505 | 80 | 0 | 0.0 | 1.0 | 0.00 | 0.00 | 0.00 | ||
| 20260504041006 | 81 | 0 | 0.0 | 1.0 | 0.00 | 0.00 | 0.00 | ||
| 20260504040507 | 81 | 0 | 0.0 | 1.0 | 0.00 | 0.00 | 0.00 | ||
| 20260504040007 | 81 | 0 | 0.0 | 2.0 | 0.00 | 0.00 | 0.00 | ||
| 20260504035507 | 81 | 0 | 0.0 | 4.0 | 0.00 | 0.00 | 0.00 | ||
| 20260504035011 | 81 | 0 | 1.0 | 8.0 | 0.00 | 0.00 | 0.00 | ||
| 20260504034522 | 82 | 0 | 1.0 | 8.0 | 0.00 | 0.00 | 0.00 | ||
| 20260504034022 | 82 | 0 | 1.0 | 7.0 | 0.00 | 0.00 | 0.00 | ||
| 20260504033505 | 82 | 0 | 2.0 | 9.0 | 0.00 | 0.00 | 0.00 | ||
| 20260504033007 | 82 | 0 | 1.0 | 12.0 | 0.00 | 0.00 | 0.00 | ||
| 20260504032507 | 82 | 0 | 1.0 | 12.0 | 0.00 | 0.00 | 0.00 | ||
| 20260504032029 | 83 | 0 | 4.0 | 12.0 | 0.00 | 0.00 | 0.00 | ||
| 20260504031519 | 83 | 0 | 7.0 | 12.0 | 0.00 | 0.00 | 0.00 | ||
| 20260504031003 | 83 | 0 | 2.0 | 10.0 | 0.00 | 0.00 | 0.00 | ||
| 20260504030506 | 83 | 0 | 4.0 | 10.0 | 0.00 | 0.00 | 0.00 | ||
| 20260504030004 | 83 | 0 | 2.0 | 9.0 | 0.00 | 0.00 | 0.00 | ||
| 20260504025504 | 83 | 349 | 3.0 | 12.0 | 0.00 | 0.00 | 0.00 | ||
| 20260504025027 | 84 | 358 | 6.0 | 12.0 | 0.00 | 0.00 | 0.00 | ||
| 20260504024517 | 84 | 354 | 7.0 | 12.0 | 0.00 | 0.00 | 0.00 | ||
| 20260504024017 | 84 | 0 | 6.0 | 11.0 | 0.00 | 0.00 | 0.00 | ||
| 20260504023518 | 84 | 0 | 2.0 | 10.0 | 0.00 | 0.00 | 0.00 | ||
| 20260504022507 | 85 | 350 | 8.0 | 14.0 | 0.00 | 0.00 | 0.00 | ||
| 20260504022028 | 85 | 358 | 6.0 | 14.0 | 0.00 | 0.00 | 0.00 | ||
| 20260504021003 | 85 | 0 | 0.0 | 9.0 | 0.00 | 0.00 | 0.00 | ||
| 20260504020505 | 85 | 348 | 1.0 | 14.0 | 0.00 | 0.00 | 0.00 | ||
| 20260504015506 | 85 | 358 | 10.0 | 22.0 | 0.00 | 0.00 | 0.00 | ||
| 20260504015025 | 86 | 0 | 12.0 | 20.0 | 0.00 | 0.00 | 0.00 | ||
| 20260504014517 | 86 | 359 | 9.0 | 18.0 | 0.00 | 0.00 | 0.00 | ||
| 20260504013521 | 86 | 355 | 10.0 | 20.0 | 0.00 | 0.00 | 0.00 | ||
| 20260504012523 | 87 | 359 | 11.0 | 20.0 | 0.00 | 0.00 | 0.00 | ||
| 20260504012024 | 87 | 0 | 10.0 | 19.0 | 0.00 | 0.00 | 0.00 | ||
| 20260504011514 | 87 | 355 | 5.0 | 22.0 | 0.00 | 0.00 | 0.00 | ||
| 20260504011012 | 87 | 359 | 14.0 | 22.0 | 0.00 | 0.00 | 0.00 | ||
| 20260504010512 | 87 | 356 | 5.0 | 19.0 | 0.00 | 0.00 | 0.00 | ||
| 20260504010014 | 87 | 354 | 7.0 | 20.0 | 0.00 | 0.00 | 0.00 | ||
| 20260504005023 | 87 | 0 | 8.0 | 13.0 | 0.00 | 0.00 | 0.00 | ||
| 20260504004515 | 87 | 357 | 5.0 | 16.0 | 0.00 | 0.00 | 0.00 | ||
| 20260504004016 | 87 | 359 | 8.0 | 16.0 | 0.00 | 0.00 | 0.00 | ||
| 20260504003517 | 87 | 0 | 3.0 | 7.0 | 0.00 | 0.00 | 0.00 | ||
| 20260504002521 | 88 | 0 | 2.0 | 10.0 | 0.00 | 0.00 | 0.00 | ||
| 20260504002002 | 88 | 0 | 5.0 | 10.0 | 0.00 | 0.00 | 0.00 | ||
| 20260504000502 | 88 | 0 | 1.0 | 11.0 | 0.00 | 0.00 | 0.00 | ||
| 20260504000003 | 88 | 0 | 5.0 | 12.0 | 0.00 | 0.00 | 0.00 | ||
| 20260503235505 | 88 | 359 | 4.0 | 15.0 | 0.00 | 0.00 | 0.00 | ||
| 20260503235027 | 88 | 356 | 9.0 | 15.0 | 0.00 | 0.00 | 0.00 | ||
| 20260503234520 | 88 | 359 | 8.0 | 17.0 | 0.00 | 0.00 | 0.00 | ||
| 20260503234021 | 88 | 358 | 8.0 | 17.0 | 0.00 | 0.00 | 0.00 | ||
| 20260503233507 | 88 | 354 | 7.0 | 14.0 | 0.00 | 0.00 | 0.00 |